Location: Fort Worth, Tx
(32.7431°N, 97.3695°W)
Time: 01:42:53
(UTC-04:00)

Vanguard 2 - Pass Details

Date: 29 February 2024
Orbit: 552 x 2916 km, 32.9° (Epoch: 24 April)

Event Time Altitude Azimuth Distance (km) Brightness Sun altitude
Rises 21:38:11 0° 270° (W) 4,389 12.6 -28.4°
Reaches altitude 10° 21:40:39 10° 271° (W) 3,670 11.9 -28.9°
Maximum altitude 21:50:51 89° 1° (N) 2,128 9.5 -31.0°
Enters shadow 21:55:38 52° 92° (E) 2,801 9.8 -32.0°
